Weather in Akhlebinino

Russia / Kaluga Oblast     54°26′31″N   36°26′31″E
temp.,
°C
wind,
m/s
gust,
m/s
humid.,
%
clouds,
%
prec.,
mm/h
press.,
hPa
HPBL,
m
18 may, wed
wed1800:00+5nw4119765 0.0 1008419
03:00+5nnw5119754 0.0 1009364
06:00+5nnw4119592 0.0 1010409
09:00+7n51088100 0.0 1012468
12:00+13n675384 0.1 10131952
15:00+14nnw575398 0.1 10131868
18:00+12n5866100 0.0 1015968
21:00+7nnw378112 0.0 1017182
19 may, thu
thu1900:00+4nw239061 0.0 101839
03:00+3w359131 0.0 101875
06:00+5w412835 0.0 1017317
09:00+11wnw6106375 0.0 1016926
12:00+13nw695355 0.0 10161544
15:00+12nw596664 0.1 10161278
18:00+12nnw596927 0.4 10161265
21:00+7wnw378662 0.5 1017129
20 may, fri
fri2000:00+4nne22934 0.0 101832
03:00+3se11892 0.0 101810
06:00+5e11844 0.0 101950
09:00+10e11645 0.0 1019719
12:00+14ese0150100 0.1 10181817
15:00+13ese1151100 0.1 10161546
18:00+11e3473100 0.2 1015266
21:00+8ese3882100 0.3 1015235
21 may, sat
sat2100:00+8ese4976100 0.0 1013415
03:00+7ne3781100 0.0 1012259
06:00+5ne4979100 0.0 1013304
09:00+9ne57565 0.0 10131144
12:00+12ne674397 0.0 10122304
15:00+12ne5639100 0.0 10122280
18:00+12nne464836 0.0 10121435
21:00+6nne22665 0.0 101421
22 may, sun
sun2200:00+3ene22725 0.0 101415
03:00+2nne11725 0.0 101410
06:00+4nne23675 0.0 101493
09:00+9nne34474 0.0 10131090
12:00+12nne344014 0.0 10122141
15:00+13n343690 0.0 10112407
18:00+12n344741 0.0 10111506
21:00+6ne226835 0.0 101313